AXI750 EIDW-LSZH

Flight info

Callsign AXI750
Flight time 1h 38m
Altitude 45000
Route ENDE1M ENDEQ Q36 EPOXI L15 FINMA DCT CHT DCT ITVIP DCT KONAN UL607 KOK DCT CIV DCT SUTAL DCT GTQ DCT BAMEV DCT BLM BLM3G
Aircraft C750/M-SBDE3FGHRWXY/S

Departure

Time 2026-04-30 09:16
Airport Dublin Airport (EIDW)

Arrival

Time 2026-04-30 10:54
Airport Zürich Airport (LSZH)
Time Latitude Longitude Altitude Speed Heading
2026-04-30 09:03 53.43069 -6.23738 213 ft 0 kts 185°
2026-04-30 09:09 53.43084 -6.23735 209 ft 4 kts 185°
2026-04-30 09:09 53.43106 -6.23732 207 ft 3 kts 186°
2026-04-30 09:09 53.43128 -6.23721 215 ft 4 kts 240°
2026-04-30 09:09 53.43130 -6.23684 209 ft 4 kts 284°
2026-04-30 09:10 53.43127 -6.23663 212 ft 0 kts 284°
2026-04-30 09:11 53.43130 -6.23681 208 ft 9 kts 284°
2026-04-30 09:11 53.43152 -6.23827 209 ft 11 kts 284°
2026-04-30 09:12 53.43136 -6.23908 211 ft 7 kts 248°
2026-04-30 09:12 53.43123 -6.23991 209 ft 10 kts 275°
2026-04-30 09:12 53.43142 -6.24110 207 ft 15 kts 285°
2026-04-30 09:12 53.43177 -6.24320 211 ft 13 kts 286°
2026-04-30 09:13 53.43216 -6.24412 207 ft 11 kts 356°
2026-04-30 09:13 53.43288 -6.24405 207 ft 10 kts
2026-04-30 09:13 53.43342 -6.24432 208 ft 9 kts 298°
2026-04-30 09:13 53.43353 -6.24566 208 ft 17 kts 275°
2026-04-30 09:14 53.43365 -6.24807 210 ft 21 kts 275°
2026-04-30 09:14 53.43379 -6.25045 207 ft 20 kts 275°
2026-04-30 09:14 53.43392 -6.25271 207 ft 19 kts 275°
2026-04-30 09:14 53.43403 -6.25485 212 ft 18 kts 273°
2026-04-30 09:15 53.43411 -6.25667 207 ft 14 kts 262°
2026-04-30 09:15 53.43379 -6.25796 210 ft 11 kts 246°
2026-04-30 09:15 53.43345 -6.25904 208 ft 10 kts 220°
2026-04-30 09:15 53.43284 -6.25898 207 ft 12 kts 156°
2026-04-30 09:16 53.42855 -6.25584 212 ft 120 kts 156°
2026-04-30 09:16 53.41996 -6.24957 667 ft 141 kts 152°
2026-04-30 09:16 53.41136 -6.24124 1357 ft 145 kts 142°
2026-04-30 09:16 53.40300 -6.23179 2186 ft 145 kts 143°
2026-04-30 09:17 53.39433 -6.22288 2964 ft 154 kts 147°
2026-04-30 09:17 53.38437 -6.21340 3596 ft 177 kts 149°
2026-04-30 09:17 53.37288 -6.20275 4210 ft 201 kts 150°
2026-04-30 09:17 53.35985 -6.19076 4831 ft 226 kts 150°
2026-04-30 09:18 53.34555 -6.17744 5569 ft 239 kts 148°
2026-04-30 09:18 53.33344 -6.15821 6490 ft 246 kts 128°
2026-04-30 09:18 53.32611 -6.13187 7404 ft 256 kts 108°
2026-04-30 09:18 53.32512 -6.10195 8525 ft 264 kts 88°
2026-04-30 09:19 53.33049 -6.07268 9121 ft 272 kts 73°
2026-04-30 09:19 53.33847 -6.04339 10053 ft 274 kts 71°
2026-04-30 09:19 53.34652 -6.01394 10689 ft 288 kts 72°
2026-04-30 09:19 53.35475 -5.98171 10873 ft 313 kts 73°
2026-04-30 09:20 53.36185 -5.94579 10982 ft 335 kts 78°
2026-04-30 09:20 53.36881 -5.90846 11764 ft 336 kts 78°
2026-04-30 09:20 53.37596 -5.87101 12483 ft 340 kts 78°
2026-04-30 09:20 53.38321 -5.83301 13172 ft 344 kts 78°
2026-04-30 09:21 53.39047 -5.79460 13874 ft 348 kts 79°
2026-04-30 09:21 53.39778 -5.75575 14500 ft 352 kts 79°
2026-04-30 09:21 53.40517 -5.71649 15096 ft 356 kts 79°
2026-04-30 09:21 53.41266 -5.67662 15689 ft 360 kts 79°
2026-04-30 09:22 53.42019 -5.63641 16305 ft 364 kts 79°
2026-04-30 09:22 53.42781 -5.59570 16930 ft 368 kts 79°
2026-04-30 09:22 53.43548 -5.55458 17569 ft 372 kts 79°
2026-04-30 09:22 53.44233 -5.51268 18162 ft 372 kts 85°
2026-04-30 09:23 53.44476 -5.46970 18796 ft 368 kts 95°
2026-04-30 09:23 53.44381 -5.42685 19392 ft 369 kts 98°
2026-04-30 09:23 53.44273 -5.38356 20020 ft 373 kts 98°
2026-04-30 09:23 53.44179 -5.33985 20657 ft 377 kts 98°
2026-04-30 09:24 53.44069 -5.29572 21282 ft 381 kts 98°
2026-04-30 09:24 53.43948 -5.25114 21906 ft 385 kts 98°
2026-04-30 09:24 53.43831 -5.20611 22519 ft 389 kts 97°
2026-04-30 09:24 53.43714 -5.16058 23106 ft 393 kts 98°
2026-04-30 09:25 53.43582 -5.11480 23765 ft 394 kts 98°
2026-04-30 09:25 53.43427 -5.06871 24271 ft 397 kts 98°
2026-04-30 09:25 53.43274 -5.02221 24738 ft 402 kts 98°
2026-04-30 09:25 53.43129 -4.97513 25212 ft 406 kts 98°
2026-04-30 09:26 53.42980 -4.92770 25677 ft 410 kts 97°
2026-04-30 09:26 53.42820 -4.87975 26138 ft 414 kts 97°
2026-04-30 09:26 53.42658 -4.83139 26604 ft 418 kts 97°
2026-04-30 09:26 53.42498 -4.78248 27068 ft 422 kts 97°
2026-04-30 09:27 53.42334 -4.73318 27532 ft 426 kts 97°
2026-04-30 09:27 53.42166 -4.68401 27984 ft 430 kts 96°
2026-04-30 09:27 53.41992 -4.63377 28428 ft 434 kts 96°
2026-04-30 09:27 53.41818 -4.58329 29028 ft 434 kts 97°
2026-04-30 09:28 53.41639 -4.53250 29491 ft 439 kts 97°
2026-04-30 09:28 53.41454 -4.48122 29943 ft 442 kts 97°
2026-04-30 09:28 53.41268 -4.42951 30375 ft 446 kts 97°
2026-04-30 09:28 53.41079 -4.37744 30783 ft 449 kts 97°
2026-04-30 09:29 53.40885 -4.32511 31230 ft 451 kts 97°
2026-04-30 09:29 53.40690 -4.27282 31883 ft 448 kts 97°
2026-04-30 09:29 53.40494 -4.22086 32512 ft 445 kts 97°
2026-04-30 09:29 53.40296 -4.16924 33127 ft 444 kts 97°
2026-04-30 09:30 53.40096 -4.11771 33758 ft 442 kts 97°
2026-04-30 09:30 53.39897 -4.06670 34515 ft 436 kts 97°
2026-04-30 09:30 53.39697 -4.01615 35065 ft 435 kts 97°
2026-04-30 09:30 53.39492 -3.96554 35469 ft 436 kts 97°
2026-04-30 09:31 53.39287 -3.91485 35901 ft 437 kts 97°
2026-04-30 09:31 53.39080 -3.86395 36352 ft 438 kts 97°
2026-04-30 09:31 53.38869 -3.81304 36790 ft 439 kts 97°
2026-04-30 09:31 53.38655 -3.76199 37221 ft 439 kts 97°
2026-04-30 09:32 53.38440 -3.71092 37661 ft 440 kts 97°
2026-04-30 09:32 53.38112 -3.66005 38079 ft 439 kts 103°
2026-04-30 09:32 53.37299 -3.61102 38522 ft 436 kts 113°
2026-04-30 09:32 53.36107 -3.56432 38856 ft 438 kts 116°
2026-04-30 09:33 53.34879 -3.51731 39067 ft 443 kts 116°
2026-04-30 09:33 53.33596 -3.47043 39400 ft 443 kts 120°
2026-04-30 09:33 53.31903 -3.42759 39799 ft 440 kts 130°
2026-04-30 09:33 53.29893 -3.38912 40166 ft 440 kts 134°
2026-04-30 09:34 53.27823 -3.35147 40625 ft 439 kts 134°
2026-04-30 09:34 53.25799 -3.31336 41006 ft 440 kts 133°
2026-04-30 09:34 53.23793 -3.27455 41376 ft 441 kts 132°
2026-04-30 09:34 53.21763 -3.23593 41684 ft 444 kts 134°
2026-04-30 09:35 53.19705 -3.19767 42172 ft 442 kts 133°
2026-04-30 09:35 53.17656 -3.15934 42538 ft 444 kts 133°
2026-04-30 09:35 53.15610 -3.12064 42851 ft 446 kts 133°
2026-04-30 09:35 53.13552 -3.08187 43245 ft 446 kts 134°
2026-04-30 09:36 53.11523 -3.04396 43736 ft 444 kts 133°
2026-04-30 09:36 53.09459 -3.00549 44035 ft 446 kts 133°
2026-04-30 09:36 53.07393 -2.96686 44428 ft 447 kts 133°
2026-04-30 09:36 53.05328 -2.92831 44804 ft 447 kts 133°
2026-04-30 09:37 53.03250 -2.88965 45039 ft 450 kts 133°
2026-04-30 09:37 53.01158 -2.85080 45261 ft 453 kts 134°
2026-04-30 09:37 52.96885 -2.77158 45246 ft 468 kts 133°
2026-04-30 09:38 52.92475 -2.69008 45256 ft 482 kts 133°
2026-04-30 09:38 52.87937 -2.60650 45249 ft 491 kts 133°
2026-04-30 09:39 52.83352 -2.52236 45247 ft 492 kts 134°
2026-04-30 09:39 52.78795 -2.43894 45247 ft 486 kts 134°
2026-04-30 09:40 52.74260 -2.35632 45245 ft 489 kts 133°
2026-04-30 09:40 52.69689 -2.27325 45258 ft 487 kts 134°
2026-04-30 09:41 52.65126 -2.19063 45265 ft 488 kts 134°
2026-04-30 09:41 52.60569 -2.10838 45257 ft 487 kts 134°
2026-04-30 09:42 52.56002 -2.02623 45259 ft 487 kts 134°
2026-04-30 09:42 52.51432 -1.94429 45245 ft 488 kts 133°
2026-04-30 09:43 52.46797 -1.86148 45264 ft 491 kts 134°
2026-04-30 09:43 52.42173 -1.77913 45265 ft 492 kts 134°
2026-04-30 09:44 52.37550 -1.69707 45266 ft 490 kts 134°
2026-04-30 09:44 52.32882 -1.61529 45260 ft 493 kts 135°
2026-04-30 09:45 52.28165 -1.53582 45307 ft 493 kts 134°
2026-04-30 09:45 52.23445 -1.45472 45311 ft 492 kts 135°
2026-04-30 09:46 52.18696 -1.37448 45313 ft 491 kts 135°
2026-04-30 09:46 52.13960 -1.29412 45316 ft 491 kts 135°
2026-04-30 09:47 52.09230 -1.21448 45306 ft 491 kts 135°
2026-04-30 09:47 52.04475 -1.13445 45291 ft 490 kts 135°
2026-04-30 09:48 51.99699 -1.05478 45243 ft 494 kts 136°
2026-04-30 09:48 51.94588 -0.98045 45240 ft 491 kts 140°
2026-04-30 09:49 51.89470 -0.90675 45249 ft 491 kts 139°
2026-04-30 09:49 51.84350 -0.83287 45254 ft 495 kts 139°
2026-04-30 09:50 51.79205 -0.75927 45266 ft 492 kts 140°
2026-04-30 09:50 51.74071 -0.68573 45268 ft 494 kts 140°
2026-04-30 09:51 51.68897 -0.61210 45249 ft 493 kts 140°
2026-04-30 09:51 51.63934 -0.53544 45229 ft 497 kts 130°
2026-04-30 09:52 51.60416 -0.43999 45238 ft 501 kts 113°
2026-04-30 09:52 51.58357 -0.33297 45246 ft 502 kts 106°
2026-04-30 09:53 51.56351 -0.22558 45243 ft 500 kts 111°
2026-04-30 09:53 51.53976 -0.12057 45253 ft 501 kts 109°
2026-04-30 09:54 51.51861 -0.01387 45308 ft 501 kts 110°
2026-04-30 09:54 51.49545 0.09167 45263 ft 502 kts 110°
2026-04-30 09:55 51.47359 0.19715 45267 ft 502 kts 110°
2026-04-30 09:55 51.45073 0.30269 45273 ft 501 kts 110°
2026-04-30 09:56 51.42817 0.40857 45290 ft 502 kts 110°
2026-04-30 09:56 51.40532 0.51415 45288 ft 500 kts 110°
2026-04-30 09:57 51.38253 0.61938 45287 ft 500 kts 110°
2026-04-30 09:57 51.35962 0.72441 45293 ft 500 kts 110°
2026-04-30 09:58 51.33662 0.82941 45294 ft 500 kts 110°
2026-04-30 09:58 51.31739 0.91677 45283 ft 503 kts 110°
2026-04-30 09:59 51.27470 1.12859 45289 ft 502 kts 104°
2026-04-30 10:00 51.24879 1.29024 45296 ft 501 kts 105°
2026-04-30 10:01 51.22251 1.45176 45302 ft 501 kts 105°
2026-04-30 10:02 51.19575 1.61284 45300 ft 501 kts 105°
2026-04-30 10:02 51.17791 1.72025 45301 ft 501 kts 105°
2026-04-30 10:03 51.15990 1.82745 45298 ft 501 kts 105°
2026-04-30 10:03 51.14186 1.93460 45284 ft 499 kts 105°
2026-04-30 10:04 51.12776 2.04250 45271 ft 499 kts 96°
2026-04-30 10:04 51.12307 2.15282 45294 ft 500 kts 94°
2026-04-30 10:05 51.11645 2.26290 45288 ft 499 kts 96°
2026-04-30 10:05 51.11068 2.37307 45295 ft 499 kts 95°
2026-04-30 10:06 51.10436 2.48304 45306 ft 499 kts 95°
2026-04-30 10:06 51.09764 2.59285 45289 ft 499 kts 98°
2026-04-30 10:07 51.07695 2.69771 45289 ft 499 kts 116°
2026-04-30 10:07 51.03892 2.78902 45312 ft 500 kts 128°
2026-04-30 10:08 50.99601 2.87578 45304 ft 501 kts 125°
2026-04-30 10:08 50.95810 2.96847 45300 ft 501 kts 123°
2026-04-30 10:09 50.91764 3.05835 45309 ft 501 kts 126°
2026-04-30 10:09 50.87832 3.14922 45306 ft 500 kts 123°
2026-04-30 10:10 50.83835 3.23963 45304 ft 503 kts 125°
2026-04-30 10:10 50.79830 3.33031 45300 ft 504 kts 124°
2026-04-30 10:11 50.75812 3.42114 45301 ft 505 kts 124°
2026-04-30 10:11 50.71774 3.51173 45300 ft 504 kts 124°
2026-04-30 10:12 50.67746 3.60217 45308 ft 504 kts 124°
2026-04-30 10:12 50.63699 3.69239 45306 ft 504 kts 124°
2026-04-30 10:13 50.59644 3.78275 45305 ft 507 kts 125°
2026-04-30 10:13 50.55673 3.87415 45300 ft 506 kts 122°
2026-04-30 10:14 50.51847 3.96709 45298 ft 506 kts 122°
2026-04-30 10:14 50.46076 4.10591 45300 ft 506 kts 122°
2026-04-30 10:15 50.42244 4.19782 45296 ft 506 kts 122°
2026-04-30 10:15 50.38382 4.29006 45296 ft 506 kts 122°
2026-04-30 10:16 50.34514 4.38218 45297 ft 507 kts 122°
2026-04-30 10:17 50.28695 4.52014 45296 ft 505 kts 123°
2026-04-30 10:17 50.22846 4.65804 45294 ft 508 kts 123°
2026-04-30 10:18 50.18936 4.74986 45283 ft 506 kts 123°
2026-04-30 10:19 50.13063 4.88716 45282 ft 507 kts 123°
2026-04-30 10:19 50.09151 4.97820 45281 ft 505 kts 123°
2026-04-30 10:20 50.05225 5.06927 45280 ft 508 kts 123°
2026-04-30 10:20 49.99301 5.20610 45279 ft 505 kts 123°
2026-04-30 10:21 49.95348 5.29700 45282 ft 510 kts 123°
2026-04-30 10:21 49.91369 5.38817 45283 ft 510 kts 123°
2026-04-30 10:22 49.87393 5.47901 45289 ft 510 kts 123°
2026-04-30 10:22 49.83393 5.57004 45287 ft 513 kts 123°
2026-04-30 10:23 49.79383 5.66100 45295 ft 510 kts 123°
2026-04-30 10:23 49.75398 5.75107 45300 ft 511 kts 123°
2026-04-30 10:24 49.71352 5.84221 45309 ft 511 kts 123°
2026-04-30 10:24 49.67321 5.93273 45312 ft 512 kts 123°
2026-04-30 10:25 49.63263 6.02352 45314 ft 515 kts 123°
2026-04-30 10:25 49.59199 6.11413 45316 ft 513 kts 123°
2026-04-30 10:26 49.55145 6.20426 45311 ft 513 kts 123°
2026-04-30 10:26 49.51064 6.29460 45323 ft 515 kts 123°
2026-04-30 10:27 49.46526 6.37931 45294 ft 515 kts 136°
2026-04-30 10:27 49.40601 6.44080 45293 ft 517 kts 154°
2026-04-30 10:28 49.33865 6.48123 45298 ft 516 kts 160°
2026-04-30 10:28 49.27191 6.52184 45300 ft 514 kts 154°
2026-04-30 10:29 49.20714 6.56947 45295 ft 518 kts 156°
2026-04-30 10:29 49.13984 6.61225 45296 ft 527 kts 156°
2026-04-30 10:30 49.07416 6.65809 45289 ft 516 kts 155°
2026-04-30 10:30 49.04159 6.67969 44667 ft 506 kts 156°
2026-04-30 10:30 49.00954 6.70044 44037 ft 494 kts 156°
2026-04-30 10:31 48.97830 6.72085 43401 ft 483 kts 158°
2026-04-30 10:31 48.94743 6.73948 42784 ft 472 kts 158°
2026-04-30 10:31 48.91752 6.75730 42196 ft 467 kts 158°
2026-04-30 10:31 48.88726 6.77512 41581 ft 465 kts 157°
2026-04-30 10:32 48.85706 6.79297 40958 ft 465 kts 157°
2026-04-30 10:32 48.82709 6.81077 40355 ft 460 kts 157°
2026-04-30 10:32 48.79727 6.82842 39752 ft 460 kts 156°
2026-04-30 10:32 48.76748 6.84598 39146 ft 457 kts 156°
2026-04-30 10:33 48.73795 6.86335 38479 ft 454 kts 156°
2026-04-30 10:33 48.70854 6.88066 37884 ft 454 kts 156°
2026-04-30 10:33 48.67911 6.89801 37277 ft 454 kts 156°
2026-04-30 10:33 48.64959 6.91534 36670 ft 455 kts 156°
2026-04-30 10:34 48.62005 6.93264 36072 ft 455 kts 156°
2026-04-30 10:34 48.59051 6.94993 35475 ft 456 kts 155°
2026-04-30 10:34 48.56078 6.96735 34850 ft 459 kts 155°
2026-04-30 10:34 48.53105 6.98472 34280 ft 458 kts 155°
2026-04-30 10:35 48.50125 7.00209 33706 ft 460 kts 154°
2026-04-30 10:35 48.47140 7.01949 33094 ft 461 kts 154°
2026-04-30 10:35 48.44145 7.03694 32486 ft 462 kts 154°
2026-04-30 10:35 48.41143 7.05439 31866 ft 463 kts 155°
2026-04-30 10:36 48.38135 7.07185 31264 ft 464 kts 155°
2026-04-30 10:36 48.35112 7.08937 30657 ft 465 kts 155°
2026-04-30 10:36 48.32111 7.10671 30004 ft 459 kts 155°
2026-04-30 10:36 48.29145 7.12387 29400 ft 455 kts 155°
2026-04-30 10:37 48.26199 7.14092 28805 ft 452 kts 155°
2026-04-30 10:37 48.23274 7.15780 28218 ft 449 kts 155°
2026-04-30 10:37 48.20367 7.17453 27636 ft 446 kts 155°
2026-04-30 10:37 48.17479 7.19116 27062 ft 443 kts 155°
2026-04-30 10:38 48.14613 7.20764 26479 ft 439 kts 155°
2026-04-30 10:38 48.11763 7.22399 25913 ft 437 kts 155°
2026-04-30 10:38 48.08937 7.24019 25336 ft 434 kts 155°
2026-04-30 10:38 48.06127 7.25629 24771 ft 432 kts 155°
2026-04-30 10:39 48.03331 7.27230 24199 ft 429 kts 154°
2026-04-30 10:39 48.00553 7.28817 23602 ft 426 kts 154°
2026-04-30 10:39 47.97796 7.30390 23034 ft 424 kts 155°
2026-04-30 10:39 47.95053 7.31956 22478 ft 421 kts 155°
2026-04-30 10:40 47.92329 7.33507 21923 ft 418 kts 155°
2026-04-30 10:40 47.89655 7.35027 21382 ft 415 kts 155°
2026-04-30 10:40 47.86966 7.36555 20836 ft 412 kts 155°
2026-04-30 10:40 47.84295 7.38072 20294 ft 409 kts 155°
2026-04-30 10:41 47.81644 7.39575 19756 ft 406 kts 156°
2026-04-30 10:41 47.79017 7.41064 19218 ft 404 kts 156°
2026-04-30 10:41 47.76399 7.42546 18696 ft 401 kts 156°
2026-04-30 10:41 47.73795 7.44018 18122 ft 397 kts 156°
2026-04-30 10:42 47.71221 7.45472 17605 ft 394 kts 156°
2026-04-30 10:42 47.68673 7.46910 17087 ft 390 kts 156°
2026-04-30 10:42 47.66162 7.48397 16559 ft 385 kts 152°
2026-04-30 10:42 47.64023 7.50684 16050 ft 376 kts 133°
2026-04-30 10:43 47.62492 7.53752 15566 ft 368 kts 116°
2026-04-30 10:43 47.61561 7.57250 15119 ft 362 kts 107°
2026-04-30 10:43 47.60758 7.60736 14641 ft 354 kts 106°
2026-04-30 10:43 47.59956 7.64198 14170 ft 354 kts 107°
2026-04-30 10:44 47.59146 7.67631 13677 ft 352 kts 107°
2026-04-30 10:44 47.58344 7.71026 13208 ft 347 kts 107°
2026-04-30 10:44 47.57552 7.74400 12741 ft 342 kts 107°
2026-04-30 10:44 47.56766 7.77751 12298 ft 345 kts 107°
2026-04-30 10:45 47.55990 7.81051 11850 ft 348 kts 108°
2026-04-30 10:45 47.55205 7.84371 11397 ft 333 kts 107°
2026-04-30 10:45 47.54466 7.87482 10974 ft 309 kts 107°
2026-04-30 10:45 47.53778 7.90390 10580 ft 291 kts 107°
2026-04-30 10:46 47.53121 7.93172 10211 ft 283 kts 107°
2026-04-30 10:46 47.52471 7.95922 9823 ft 282 kts 108°
2026-04-30 10:46 47.51832 7.98604 9450 ft 275 kts 108°
2026-04-30 10:46 47.51202 8.01252 9100 ft 268 kts 108°
2026-04-30 10:47 47.50885 8.03951 8696 ft 270 kts 88°
2026-04-30 10:47 47.51291 8.06621 8359 ft 266 kts 69°
2026-04-30 10:47 47.52055 8.09116 8053 ft 266 kts 66°
2026-04-30 10:47 47.52804 8.11551 7707 ft 258 kts 67°
2026-04-30 10:48 47.53540 8.13996 7371 ft 264 kts 67°
2026-04-30 10:48 47.54033 8.15633 7129 ft 260 kts 68°
2026-04-30 10:48 47.54769 8.18056 6779 ft 254 kts 68°
2026-04-30 10:48 47.55495 8.20454 6434 ft 256 kts 68°
2026-04-30 10:49 47.56219 8.22854 6087 ft 253 kts 68°
2026-04-30 10:49 47.56934 8.25222 5751 ft 249 kts 68°
2026-04-30 10:49 47.57636 8.27549 5420 ft 248 kts 68°
2026-04-30 10:49 47.58340 8.29885 5104 ft 249 kts 68°
2026-04-30 10:50 47.59039 8.32211 4763 ft 244 kts 68°
2026-04-30 10:50 47.59501 8.34571 4402 ft 241 kts 84°
2026-04-30 10:50 47.59336 8.37031 4208 ft 238 kts 103°
2026-04-30 10:50 47.58603 8.39235 4228 ft 248 kts 122°
2026-04-30 10:51 47.57411 8.41130 3906 ft 253 kts 134°
2026-04-30 10:51 47.56119 8.42801 3595 ft 235 kts 134°
2026-04-30 10:51 47.54956 8.44380 3281 ft 219 kts 131°
2026-04-30 10:51 47.53858 8.45916 2990 ft 217 kts 131°
2026-04-30 10:52 47.52815 8.47335 2711 ft 188 kts 131°
2026-04-30 10:52 47.51930 8.48522 2426 ft 162 kts 131°
2026-04-30 10:52 47.51116 8.49654 2215 ft 158 kts 129°
2026-04-30 10:52 47.50319 8.50734 1995 ft 141 kts 131°
2026-04-30 10:53 47.49646 8.51655 1814 ft 130 kts 130°
2026-04-30 10:53 47.48996 8.52540 1651 ft 125 kts 132°
2026-04-30 10:53 47.48338 8.53434 1471 ft 130 kts 133°
2026-04-30 10:53 47.47706 8.54296 1394 ft 114 kts 134°
2026-04-30 10:54 47.47280 8.54876 1383 ft 56 kts 137°
2026-04-30 10:54 47.47009 8.55248 1385 ft 51 kts 137°
2026-04-30 10:54 47.46765 8.55567 1390 ft 39 kts 144°
2026-04-30 10:54 47.46613 8.55670 1390 ft 16 kts 162°
2026-04-30 10:55 47.46518 8.55705 1394 ft 13 kts 167°
2026-04-30 10:55 47.46433 8.55733 1393 ft 13 kts 167°
2026-04-30 10:55 47.46364 8.55783 1399 ft 10 kts 137°
2026-04-30 10:55 47.46309 8.55857 1397 ft 15 kts 139°
2026-04-30 10:56 47.46206 8.56000 1406 ft 23 kts 138°
2026-04-30 10:56 47.46094 8.56151 1405 ft 21 kts 137°
2026-04-30 10:56 47.45994 8.56291 1408 ft 19 kts 136°
2026-04-30 10:56 47.45908 8.56404 1412 ft 14 kts 137°
2026-04-30 10:57 47.45843 8.56492 1415 ft 11 kts 137°
2026-04-30 10:57 47.45798 8.56583 1417 ft 11 kts 96°
2026-04-30 10:57 47.45789 8.56713 1416 ft 20 kts 96°
2026-04-30 10:57 47.45772 8.56964 1421 ft 23 kts 96°
2026-04-30 10:58 47.45684 8.57031 1421 ft 14 kts 187°
2026-04-30 10:58 47.45590 8.57016 1420 ft 13 kts 185°
2026-04-30 10:58 47.45517 8.57017 1417 ft 9 kts 144°
2026-04-30 10:58 47.45505 8.57095 1417 ft 8 kts 96°
2026-04-30 10:59 47.45496 8.57173 1417 ft 9 kts 114°
2026-04-30 10:59 47.45447 8.57222 1416 ft 8 kts 149°
2026-04-30 10:59 47.45409 8.57245 1416 ft 0 kts 136°
2026-04-30 10:59 47.45412 8.57266 1416 ft 2 kts 38°
2026-04-30 11:00 47.45426 8.57267 1416 ft 2 kts
2026-04-30 11:00 47.45435 8.57269 1416 ft 0 kts
2026-04-30 11:02 47.45436 8.57269 1416 ft 0 kts